This demonstration page uses our WeatherBlox Daily Observations layout. Learn more.

Left ArrowRight Arrow

44.8408, -93.29828

Hourly Observations for November 24, 2020

Temp ( °F °C ) Dew Point ( °F °C ) Humidity (%) Winds ( mph kmh ) Pressure ( in mb ) Visibility ( mi km ) Precip ( " mm )
12:53 am 00:53 Cloudy 33 0.6 24 -4.4 70 70 SE 9 15 30.14 1021 10 16 0.00 0.00
1:53 am 01:53 Cloudy 33 0.6 25 -3.9 72 72 SE 12 19 30.12 1020 10 16 0.00 0.00
2:53 am 02:53 Cloudy 33 0.6 27 -2.8 78 78 SE 12 19 30.10 1019 9 14 0.00 0.00
3:53 am 03:53 Cloudy with Mist and Fog 32 0 29 -1.7 88 88 SE 13 20 30.07 1018 6 10 0.00 0.00
4:21 am 04:21 Cloudy with Mist and Fog 32 0 29 -1.7 88 88 SE 16 26 30.08 1018 6 10 0.00 0.00
4:53 am 04:53 Cloudy 32 0 29 -1.7 88 88 SE 10 17 30.06 1018 7 11 0.00 0.00
5:40 am 05:40 Cloudy with Mist and Fog 32 0 30 -1.1 92 92 SE 13 20 30.07 1018 5 8 0.00 0.00
5:53 am 05:53 Cloudy with Mist and Fog 32 0 30 -1.1 92 92 SE 15 24 30.04 1017 5 8 0.00 0.00
6:53 am 06:53 Cloudy with Drizzle 33 0.6 31 -0.6 92 92 SE 15 24 30.01 1016 3 5 0.00 0.00
7:00 am 07:00 Cloudy with Drizzle 33 0.6 32 0 96 96 ESE 12 19 30.02 1017 3 4 0.00 0.00
7:41 am 07:41 Cloudy with Drizzle 33 0.6 32 0 96 96 SE 12 19 30.01 1016 3 5 0.00 0.00
7:53 am 07:53 Cloudy with Drizzle 33 0.6 32 0 96 96 SE 12 19 29.99 1016 3 5 0.00 0.00
8:04 am 08:04 Cloudy with Drizzle 33 0.6 32 0 96 96 SE 12 19 30.00 1016 3 4 0.00 0.00
8:53 am 08:53 Cloudy with Drizzle 34 1.1 32 0 92 92 SE 13 20 29.98 1015 3 4 0.00 0.00
9:01 am 09:01 Cloudy with Drizzle 34 1.1 33 0.6 97 97 SE 9 15 29.99 1016 3 5 0.00 0.00
9:53 am 09:53 Cloudy with Drizzle 34 1.1 33 0.6 97 97 SSE 10 17 29.96 1015 4 6 0.00 0.00
10:20 am 10:20 Cloudy with Drizzle 35 1.7 33 0.6 93 93 SSE 10 17 29.97 1015 4 6 0.00 0.00
10:53 am 10:53 Cloudy with Drizzle 35 1.7 34 1.1 96 96 SSE 9 15 29.95 1014 2 3 0.00 0.00
11:05 am 11:05 Cloudy with Drizzle 35 1.7 34 1.1 96 96 SE 10 17 29.96 1015 2 3 0.00 0.00
11:33 am 11:33 Cloudy with Drizzle 35 1.7 35 1.7 100 100 SSE 12 19 29.94 1014 3 5 0.00 0.00
11:53 am 11:53 Cloudy with Drizzle 35 1.7 35 1.7 100 100 SSE 7 11 29.92 1013 4 6 0.00 0.00
12:53 pm 12:53 Cloudy with Drizzle 36 2.2 35 1.7 97 97 S 8 13 29.89 1012 3 5 0.00 0.00
1:53 pm 13:53 Cloudy with Drizzle 36 2.2 35 1.7 97 97 S 7 11 29.88 1012 3 5 0.00 0.00
2:53 pm 14:53 Cloudy with Drizzle 36 2.2 35 1.7 97 97 SSE 6 9 29.88 1012 3 5 0.00 0.00
3:53 pm 15:53 Cloudy with Drizzle 36 2.2 35 1.7 97 97 SE 5 7 29.88 1012 3 5 0.00 0.00
4:53 pm 16:53 Cloudy with Drizzle 36 2.2 35 1.7 97 97 SSE 3 6 29.88 1012 3 5 0.01 0.25
5:53 pm 17:53 Cloudy with Drizzle 36 2.2 35 1.7 97 97 SE 5 7 29.88 1012 3 5 0.00 0.00
6:26 pm 18:26 Cloudy with Drizzle 36 2.2 35 1.7 97 97 SSE 6 9 29.90 1012 3 5 0.00 0.00
6:53 pm 18:53 Cloudy with Drizzle 36 2.2 36 2.2 100 100 Calm 29.90 1013 3 5 0.00 0.00
7:28 pm 19:28 Cloudy with Mist and Fog 36 2.2 36 2.2 100 100 Calm 29.91 1013 3 4 0.00 0.00
7:53 pm 19:53 Cloudy with Mist and Fog 36 2.2 36 2.2 100 100 Calm 29.90 1012 3 5 0.00 0.00
8:36 pm 20:36 Cloudy with Mist and Fog 36 2.2 36 2.2 100 100 Calm 29.92 1013 2 3 0.00 0.00
8:53 pm 20:53 Cloudy with Mist and Fog 36 2.2 36 2.2 100 100 Calm 29.91 1013 2 3 0.00 0.00
9:00 pm 21:00 Cloudy with Mist and Fog 36 2.2 35 1.7 97 97 SSE 5 7 29.92 1013 2 2 0.00 0.00
9:53 pm 21:53 Cloudy with Mist and Fog 35 1.7 35 1.7 100 100 SSE 5 7 29.91 1013 2 2 0.00 0.00
10:21 pm 22:21 Cloudy with Mist and Fog 36 2.2 36 2.2 100 100 Calm 29.93 1013 1 1 0.00 0.00
10:50 pm 22:50 Cloudy with Mist and Fog 36 2 36 2 100 100 Calm 29.93 1013 1 2 0.00 0.00
10:53 pm 22:53 Cloudy with Mist and Fog 36 2.2 36 2.2 100 100 Calm 29.91 1013 1 2 0.00 0.00
11:07 pm 23:07 Cloudy with Mist and Fog 36 2.2 36 2.2 100 100 Calm 29.93 1013 2 3 0.00 0.00
11:18 pm 23:18 Cloudy with Mist and Fog 36 2.2 36 2.2 100 100 NNW 7 11 29.93 1013 3 5 0.00 0.00
11:53 pm 23:53 Cloudy with Mist and Fog 36 2.2 35 1.7 97 97 NNW 7 11 29.91 1013 6 10 0.00 0.00

Powered by AerisWeather